Location: ???????
(55.4362°N, 38.1183°E)
Time: 02:52:15
(UTC+00:00)

GEOS 3 Rocket - Pass Details

Date: 17 June 2021
Orbit: 779 x 840 km, 115.0° (Epoch: 26 July)

Event Time Altitude Azimuth Distance (km) Brightness Sun altitude
Exits shadow 20:30:13 13° 169° (S) 2,232 5.2 -10.2°
Maximum altitude 20:34:35 39° 234° (SW) 1,238 4.4 -10.3°
Drops below altitude 10° 20:39:35 10° 303° (WNW) 2,452 6.8 -10.5°
Sets 20:42:03 0° 311° (NW) 3,383 7.8 -10.5°
